GW0940 Weather Reports


time (UTC)temp
F
wind
direction
speed
knots
gust
knots
rain 1hr
in
rain 24hr
in
rain mn
in
humidity
%
barometer
mb
20260504182625 78 355 1.7 5.2 0.00 0.00 0.00 34 1012.6
20260504182123 78 209 0.9 5.2 0.00 0.00 0.00 33 1012.8
20260504181620 78 15 1.7 6.1 0.00 0.00 0.00 33 1012.9
20260504181117 78 358 3.5 4.3 0.00 0.00 0.00 34 1012.6
20260504180617 78 152 1.7 3.5 0.00 0.00 0.00 36 1012.6
20260504180115 77 149 3.5 5.2 0.00 0.00 0.00 36 1012.9
20260504175612 77 186 0.0 4.3 0.00 0.00 0.00 38 1013.2
20260504175109 78 166 2.6 6.1 0.00 0.00 0.00 33 1013.1
20260504174607 79 0 0.9 4.3 0.00 0.00 0.00 34 1013.0
20260504174103 77 261 0.0 4.3 0.00 0.00 0.00 34 1013.1
20260504173600 76 157 0.0 4.3 0.00 0.00 0.00 39 1013.1
20260504173058 76 157 2.6 3.5 0.00 0.00 0.00 41 1013.1
20260504172554 76 158 2.6 3.5 0.00 0.00 0.00 38 1013.5
20260504172050 76 307 0.0 2.6 0.00 0.00 0.00 35 1013.3
20260504171547 77 166 0.0 6.1 0.00 0.00 0.00 38 1013.4
20260504171044 76 120 1.7 5.2 0.00 0.00 0.00 38 1013.5
20260504170539 76 5 0.0 6.1 0.00 0.00 0.00 34 1013.7
20260504150924 72 231 1.7 2.6 0.00 0.00 0.00 40 1015.0
20260504150420 72 154 2.6 2.6 0.00 0.00 0.00 44 1014.9
20260504140847 68 172 0.0 5.2 0.00 0.00 0.00 46 1015.2
20260504140343 68 7 0.0 2.6 0.00 0.00 0.00 43 1015.4
20260504130812 62 180 0.9 1.7 0.00 0.00 0.00 55 1015.6
20260504130308 62 263 0.0 4.3 0.00 0.00 0.00 53 1015.9
20260504120231 57 5 0.9 2.6 0.00 0.00 0.00 63 1016.0
20260504110659 49 66 0.0 0.9 0.00 0.00 0.00 85 1016.4
20260504110155 49 120 0.0 1.7 0.00 0.00 0.00 83 1016.4
20260504100119 50 105 0.9 1.7 0.00 0.00 0.00 78 1016.2
20260504081512 50 99 0.0 0.9 0.00 0.00 0.00 76 1016.5
20260504081008 50 111 0.0 0.9 0.00 0.00 0.00 75 1016.5
20260504080504 50 106 0.0 0.9 0.00 0.00 0.00 74 1016.4
20260504050317 46 126 0.0 1.7 0.00 0.00 0.00 85 1016.6
20260504045814 46 123 0.9 1.7 0.00 0.00 0.00 85 1016.5
20260504045309 46 120 0.0 1.7 0.00 0.00 0.00 84 1016.6
20260504044806 46 126 0.0 1.7 0.00 0.00 0.00 85 1016.8
20260504044304 45 120 0.9 0.9 0.00 0.00 0.00 85 1016.6
20260504043801 45 120 0.9 1.7 0.00 0.00 0.00 87 1016.7
20260504043258 45 117 0.9 1.7 0.00 0.00 0.00 88 1016.7
20260504042755 44 107 1.7 1.7 0.00 0.00 0.00 89 1016.6
20260504042251 44 98 0.0 0.9 0.00 0.00 0.00 91 1016.4
20260504041748 44 117 0.0 1.7 0.00 0.00 0.00 92 1016.7
20260504041244 44 120 0.9 1.7 0.00 0.00 0.00 91 1016.6
20260504040740 44 96 0.0 0.9 0.00 0.00 0.00 91 1016.6
20260504040238 43 128 1.7 1.7 0.00 0.00 0.00 92 1016.6
20260504035733 43 126 0.9 1.7 0.00 0.00 0.00 93 1016.6
20260504035231 43 127 1.7 1.7 0.00 0.00 0.00 92 1016.5
20260504034728 43 107 1.7 1.7 0.00 0.00 0.00 92 1016.5
20260504034225 43 120 0.9 1.7 0.00 0.00 0.00 91 1016.6
20260504033723 42 114 0.9 1.7 0.00 0.00 0.00 91 1016.5
20260504033220 42 98 0.9 0.9 0.00 0.00 0.00 90 1016.6
20260504032717 42 96 0.9 1.7 0.00 0.00 0.00 90 1016.8
20260504032214 43 117 0.9 1.7 0.00 0.00 0.00 90 1016.6
20260504031711 43 131 0.9 1.7 0.00 0.00 0.00 88 1016.4
20260504031208 43 135 1.7 1.7 0.00 0.00 0.00 87 1016.7
20260504030704 43 117 0.9 1.7 0.00 0.00 0.00 87 1016.4
20260504030202 43 111 0.9 1.7 0.00 0.00 0.00 87 1016.4
20260504025658 43 106 0.0 1.7 0.00 0.00 0.00 87 1016.4
20260504025155 44 135 1.7 1.7 0.00 0.00 0.00 88 1016.3
20260504024652 43 123 0.9 1.7 0.00 0.00 0.00 88 1016.2
20260504024148 44 142 1.7 1.7 0.00 0.00 0.00 87 1016.5
20260504023645 44 114 0.9 1.7 0.00 0.00 0.00 88 1016.5
20260504023141 44 131 0.9 1.7 0.00 0.00 0.00 88 1016.4
20260504022637 44 131 0.9 1.7 0.00 0.00 0.00 85 1016.4
20260504022133 44 117 0.9 1.7 0.00 0.00 0.00 85 1016.4
20260504021632 44 131 0.9 1.7 0.00 0.00 0.00 85 1016.2
20260504021128 45 120 0.0 1.7 0.00 0.00 0.00 83 1016.4
20260504020625 45 111 0.0 1.7 0.00 0.00 0.00 85 1016.5
20260504020121 46 135 1.7 1.7 0.00 0.00 0.00 83 1016.3
20260504015618 46 120 0.9 1.7 0.00 0.00 0.00 81 1016.2
20260504015114 46 135 1.7 1.7 0.00 0.00 0.00 79 1016.0
20260504014610 47 114 0.9 1.7 0.00 0.00 0.00 78 1016.1
20260504014107 47 90 0.9 0.9 0.00 0.00 0.00 75 1016.2
20260504013605 47 114 0.9 1.7 0.00 0.00 0.00 76 1016.1
20260504013102 47 127 0.0 1.7 0.00 0.00 0.00 77 1015.9
20260504012559 48 157 0.9 0.9 0.00 0.00 0.00 74 1016.3
20260504012057 48 139 1.7 1.7 0.00 0.00 0.00 74 1016.0
20260504011553 48 140 0.9 1.7 0.00 0.00 0.00 73 1016.1
20260504011049 48 114 0.9 0.9 0.00 0.00 0.00 73 1015.9
20260504010545 48 117 0.0 1.7 0.00 0.00 0.00 73 1015.7
20260504010041 49 154 0.9 1.7 0.00 0.00 0.00 75 1015.8
20260504005538 50 114 0.9 1.7 0.00 0.00 0.00 73 1015.9
20260504005036 50 126 0.0 0.9 0.00 0.00 0.00 68 1015.8
20260504004533 51 114 0.0 0.9 0.00 0.00 0.00 67 1015.8
20260504004030 51 120 0.0 0.9 0.00 0.00 0.00 64 1015.7
20260504003526 52 106 0.0 0.9 0.00 0.00 0.00 68 1015.6
20260504003023 52 106 0.0 0.9 0.00 0.00 0.00 64 1015.6
20260504002520 53 106 0.0 0.9 0.00 0.00 0.00 64 1015.6
20260504002018 53 106 0.9 0.9 0.00 0.00 0.00 64 1015.4
20260504001515 53 114 0.0 0.9 0.00 0.00 0.00 63 1015.5
20260504001011 53 123 0.0 1.7 0.00 0.00 0.00 62 1015.5
20260504000508 54 147 1.7 1.7 0.00 0.00 0.00 61 1015.5
20260504000006 55 151 1.7 1.7 0.00 0.00 0.00 63 1015.6
20260503235504 56 140 0.0 1.7 0.00 0.00 0.00 60 1015.3
20260503235000 56 131 0.0 1.7 0.00 0.00 0.00 55 1015.3
20260503234458 57 147 1.7 1.7 0.00 0.00 0.00 58 1015.3
20260503233956 58 106 0.0 0.0 0.00 0.00 0.00 51 1015.1
20260503233452 59 99 0.0 0.9 0.00 0.00 0.00 49 1015.3
20260503232948 59 99 0.0 0.0 0.00 0.00 0.00 48 1015.1
20260503232446 60 352 0.0 0.9 0.00 0.00 0.00 44 1015.1
20260503231943 60 0 0.0 0.0 0.00 0.00 0.00 45 1015.2
20260503231441 60 0 0.0 1.7 0.00 0.00 0.00 43 1015.2
20260503230937 61 264 0.0 1.7 0.00 0.00 0.00 43 1015.1
20260503230434 61 261 0.0 1.7 0.00 0.00 0.00 41 1015.1
20260503225931 61 126 0.9 0.9 0.00 0.00 0.00 41 1015.1
20260503225428 62 15 0.0 1.7 0.00 0.00 0.00 39 1015.3
20260503224924 62 90 0.9 3.5 0.00 0.00 0.00 42 1015.2
20260503224421 62 270 0.0 0.9 0.00 0.00 0.00 38 1015.2
20260503223919 62 106 0.0 2.6 0.00 0.00 0.00 38 1015.4
20260503223416 62 145 0.9 2.6 0.00 0.00 0.00 41 1015.0
20260503222916 62 145 0.9 2.6 0.00 0.00 0.00 39 1015.1
20260503222415 62 139 1.7 3.5 0.00 0.00 0.00 38 1015.2
20260503221913 62 150 2.6 3.5 0.00 0.00 0.00 40 1015.4
20260503221411 62 152 0.0 2.6 0.00 0.00 0.00 38 1015.3
20260503220908 63 135 1.7 2.6 0.00 0.00 0.00 38 1015.1
20260503220404 62 152 1.7 4.3 0.00 0.00 0.00 37 1015.4
20260503215901 62 148 2.6 8.7 0.00 0.00 0.00 39 1015.2
20260503215358 63 180 0.9 2.6 0.00 0.00 0.00 38 1015.5
20260503214856 63 129 2.6 3.5 0.00 0.00 0.00 41 1015.5
20260503214353 63 161 1.7 3.5 0.00 0.00 0.00 40 1015.5
20260503213850 63 132 1.7 5.2 0.00 0.00 0.00 37 1015.4
20260503213348 63 173 0.0 1.7 0.00 0.00 0.00 40 1015.4
20260503212844 62 267 2.6 3.5 0.00 0.00 0.00 36 1015.6
20260503212342 63 204 4.3 4.3 0.00 0.00 0.00 36 1015.4
20260503211839 63 195 6.1 6.1 0.00 0.00 0.00 39 1015.2
20260503211336 62 151 2.6 7.8 0.00 0.00 0.00 38 1015.5
20260503210831 62 160 2.6 6.1 0.00 0.00 0.00 39 1015.7
20260503210329 63 158 3.5 4.3 0.00 0.00 0.00 38 1015.4
20260503205824 63 141 1.7 4.3 0.00 0.00 0.00 39 1015.5
20260503205320 63 260 4.3 5.2 0.00 0.00 0.00 39 1015.5
20260503204817 64 294 0.0 4.3 0.00 0.00 0.00 40 1015.6
20260503204315 63 153 4.3 4.3 0.00 0.00 0.00 39 1015.5
20260503203812 63 173 2.6 6.1 0.00 0.00 0.00 37 1015.4
20260503203309 63 16 0.0 5.2 0.00 0.00 0.00 36 1015.6
20260503202806 62 132 1.7 5.2 0.00 0.00 0.00 38 1015.6
20260503202304 62 150 3.5 5.2 0.00 0.00 0.00 37 1015.7
20260503201801 63 164 2.6 3.5 0.00 0.00 0.00 40 1015.7
20260503201259 63 277 0.9 3.5 0.00 0.00 0.00 36 1015.8
20260503200756 62 26 1.7 7.8 0.00 0.00 0.00 37 1016.0
20260503200251 62 153 4.3 4.3 0.00 0.00 0.00 38 1016.1
20260503195749 62 236 1.7 4.3 0.00 0.00 0.00 36 1016.2
20260503195246 63 165 4.3 4.3 0.00 0.00 0.00 38 1016.3
20260503194743 63 10 1.7 5.2 0.00 0.00 0.00 36 1016.2
20260503194239 61 150 3.5 7.0 0.00 0.00 0.00 38 1016.5
20260503193735 61 155 2.6 7.0 0.00 0.00 0.00 39 1016.6
20260503193231 61 156 6.1 6.1 0.00 0.00 0.00 38 1016.7
20260503192727 62 134 3.5 10.4 0.00 0.00 0.00 38 1016.7
20260503192222 62 135 1.7 4.3 0.00 0.00 0.00 38 1016.7
20260503191720 62 147 0.0 6.1 0.00 0.00 0.00 37 1016.8
20260503191217 62 0 2.6 7.0 0.00 0.00 0.00 37 1016.5
20260503190713 62 0 1.7 4.3 0.00 0.00 0.00 38 1016.7
20260503190210 61 80 1.7 3.5 0.00 0.00 0.00 38 1016.8
20260503185708 61 265 1.7 7.0 0.00 0.00 0.00 39 1016.9
20260503185202 61 174 3.5 4.3 0.00 0.00 0.00 40 1016.9
20260503184657 62 158 3.5 6.1 0.00 0.00 0.00 41 1016.8
20260503184154 60 158 4.3 4.3 0.00 0.00 0.00 41 1017.1
20260503183650 60 146 3.5 9.6 0.00 0.00 0.00 41 1017.2
20260503183148 61 147 1.7 6.1 0.00 0.00 0.00 38 1017.0